Traverse City, MI

7:39 PM EDT on July 25, 2016 (GMT -0400)
Cherry Capital

Weather History for KTVC - February, 2014

Change the Weather History Date:

Sunday, February 9, 2014

  Actual Average Record
Temperature  
Mean Temperature 15 °F 22 °F  
Max Temperature 20 °F 29 °F 50 °F (1925)
Min Temperature 10 °F 14 °F -27 °F (1899)
Degree Days  
Heating Degree Days 50 43  
Month to date heating degree days 466 394  
Since 1 July heating degree days 4770 4550  
Moisture  
Dew Point 9 °F    
Average Humidity 72    
Maximum Humidity 88    
Minimum Humidity 56    
Precipitation  
Precipitation T in 0.06 in 0.74 in (2001)
Month to date precipitation 0.07 0.52  
Year to date precipitation 1.06 3.34  
Snow  
Snow 0.00 in - - ()
Snow Depth 25.00 in    
Sea Level Pressure  
Sea Level Pressure 30.09 in    
Wind  
Wind Speed 3 mph (NNW)    
Max Wind Speed 16 mph    
Max Gust Speed 23 mph    
Visibility 5 miles    
Events Snow    
T = Trace of Precipitation, MM = Missing Value Source: NWS Daily Summary

Daily Weather History Graph

Daily Weather History Graph

Search for Another Location

Airport or City:

Trip Planner

Search our weather history database for the weather conditions in past years. The results will help you decide how hot, cold, wet, or windy it might be!

Date:

Astronomy

Feb. 09, 2014 Rise Set
Actual Time 7:51 AM EST 6:02 PM EST
Civil Twilight 7:20 AM EST 6:32 PM EST
Nautical Twilight 6:46 AM EST 7:07 PM EST
Astronomical Twilight 6:12 AM EST 7:41 PM EST
Moon 1:37 PM EST (2/9) 4:00 AM EST (2/9)
Length of Visible Light 11h 11m
Length of Day
10h 11m
Waxing Gibbous, 77% of the Moon is Illuminated
Feb 9
Waxing Gibbous
Feb 14
Full
Feb 22
Last Quarter
Mar 1
New
Mar 8
First Quarter

Hourly Weather History & Observations

Time (EST) Temp. Windchill Dew Point Humidity Pressure Visibility Wind Dir Wind Speed Gust Speed Precip Events Conditions
12:53 AM 14.0 °F - 9.0 °F 80% 30.13 in 4.0 mi Calm Calm - 0.00 in Snow Light Snow
1:12 AM 14.0 °F - 9.0 °F 80% 30.08 in 2.5 mi Calm Calm - 0.00 in Snow Light Snow
1:25 AM 14.0 °F - 9.0 °F 80% 30.08 in 3.0 mi Calm Calm - 0.00 in Snow Light Snow
1:40 AM 14.0 °F - 9.0 °F 80% 30.07 in 2.5 mi Calm Calm - 0.00 in Snow Light Snow
1:53 AM 14.0 °F - 9.0 °F 80% 30.11 in 3.0 mi Calm Calm - 0.00 in Snow Light Snow
2:53 AM 12.9 °F - 9.0 °F 84% 30.10 in 6.0 mi Calm Calm - 0.00 in   Overcast
3:12 AM 12.9 °F - 9.0 °F 84% 30.06 in 2.0 mi Calm Calm - 0.00 in Snow Light Snow
3:39 AM 14.0 °F - 9.0 °F 80% 30.05 in 2.0 mi Calm Calm - 0.00 in Snow Light Snow
3:53 AM 14.0 °F - 9.0 °F 80% 30.09 in 2.0 mi Calm Calm - 0.00 in Snow Light Snow
4:42 AM 12.9 °F - 9.0 °F 84% 30.05 in 3.0 mi Calm Calm - 0.00 in   Overcast
4:53 AM 12.0 °F - 9.0 °F 88% 30.09 in 3.0 mi Calm Calm - 0.00 in Snow Light Snow
5:53 AM 12.0 °F - 8.1 °F 84% 30.08 in 6.0 mi Calm Calm - 0.00 in   Overcast
6:53 AM 10.0 °F - 7.0 °F 87% 30.08 in 7.0 mi Calm Calm - N/A   Overcast
7:53 AM 10.9 °F - 8.1 °F 88% 30.08 in 4.0 mi Calm Calm - 0.00 in Snow Light Snow
8:02 AM 12.0 °F - 8.1 °F 84% 30.04 in 2.0 mi Calm Calm - 0.00 in Snow Light Snow
8:53 AM 12.9 °F - 9.0 °F 84% 30.08 in 2.0 mi Calm Calm - 0.00 in Snow Light Snow
9:36 AM 14.0 °F 8.2 °F 10.0 °F 84% 30.03 in 3.0 mi SSW 3.5 mph - 0.00 in Snow Light Snow
9:53 AM 15.1 °F 9.4 °F 10.0 °F 80% 30.08 in 8.0 mi Variable 3.5 mph - 0.00 in   Overcast
10:53 AM 17.1 °F - 12.0 °F 81% 30.07 in 8.0 mi Calm Calm - N/A   Overcast
11:53 AM 18.0 °F 11.1 °F 10.9 °F 74% 30.07 in 10.0 mi Variable 4.6 mph - N/A   Mostly Cloudy
12:53 PM 18.0 °F 11.1 °F 9.0 °F 68% 30.06 in 10.0 mi NNE 4.6 mph - N/A   Overcast
1:53 PM 19.0 °F 12.3 °F 10.0 °F 68% 30.05 in 5.0 mi NNE 4.6 mph - 0.00 in Snow Light Snow
2:09 PM 19.0 °F 13.9 °F 10.0 °F 68% 30.02 in 3.0 mi Variable 3.5 mph - 0.00 in Snow Light Snow
2:53 PM 19.0 °F 13.9 °F 8.1 °F 62% 30.05 in 10.0 mi NNE 3.5 mph - 0.00 in   Overcast
3:14 PM 19.0 °F 11.1 °F 8.1 °F 62% 30.02 in 10.0 mi North 5.8 mph - N/A   Overcast
3:53 PM 19.0 °F 10.0 °F 7.0 °F 59% 30.06 in 10.0 mi NNW 6.9 mph - N/A   Overcast
4:26 PM 18.0 °F 8.7 °F 10.0 °F 71% 30.04 in 2.5 mi North 6.9 mph - 0.00 in Snow Light Snow
4:41 PM 18.0 °F 11.1 °F 10.9 °F 74% 30.05 in 3.0 mi NW 4.6 mph - 0.00 in Snow Light Snow
4:53 PM 18.0 °F 11.1 °F 10.0 °F 71% 30.09 in 7.0 mi NW 4.6 mph - 0.00 in   Overcast
5:53 PM 17.1 °F 8.7 °F 8.1 °F 68% 30.11 in 10.0 mi NW 5.8 mph - N/A   Overcast
6:53 PM 17.1 °F 8.7 °F 8.1 °F 68% 30.13 in 10.0 mi WNW 5.8 mph - 0.00 in   Overcast
7:53 PM 15.1 °F 6.4 °F 8.1 °F 74% 30.15 in 10.0 mi West 5.8 mph - N/A   Overcast
8:53 PM 16.0 °F 10.4 °F 10.0 °F 77% 30.16 in 4.0 mi NW 3.5 mph - 0.00 in Snow Light Snow
9:53 PM 12.9 °F - 9.0 °F 84% 30.17 in 8.0 mi Calm Calm - 0.00 in   Overcast
10:53 PM 14.0 °F - 10.0 °F 84% 30.18 in 9.0 mi Calm Calm - N/A   Mostly Cloudy
11:43 PM 14.0 °F -1.4 °F 9.0 °F 80% 30.15 in 2.5 mi North 15.0 mph 23.0 mph 0.00 in Snow Light Snow
11:50 PM 12.2 °F -3.1 °F 8.6 °F 85% 30.15 in 1.8 mi North 13.8 mph 23.0 mph 0.00 in Snow Light Snow
11:53 PM 12.9 °F -2.2 °F 8.1 °F 81% 30.19 in 1.8 mi North 13.8 mph - 0.00 in Snow Light Snow